• In Deutschland
  • Länderverzeichnis
  • Für 7 Tage
  • Wassertemperatur
  • Satellitenkarten
  • Wetterkarte
  • Widgets
  • user-avatar
    Anmelden

    Stündliche Wetter Gelting

    Heute, 25 September, Dienstag

    Zeit Temperatur Niederschläge Wind Luftdruck Luftfeuchtigkeit
    00:00 +7°C° 0 mm 6 m/S 772 mmHg 71%
    01:00 +6°C° 0 mm 5 m/S 773 mmHg 75%
    02:00 +6°C° 0 mm 5 m/S 773 mmHg 75%
    03:00 +6°C° 0 mm 5 m/S 773 mmHg 76%
    04:00 +6°C° 0 mm 5 m/S 774 mmHg 77%
    05:00 +6°C° 0 mm 5 m/S 774 mmHg 77%
    06:00 +6°C° 0 mm 4 m/S 775 mmHg 78%
    07:00 +6°C° 0 mm 4 m/S 775 mmHg 78%
    08:00 +8°C° 0 mm 4 m/S 775 mmHg 72%
    09:00 +11°C° 0 mm 4 m/S 776 mmHg 66%
    10:00 +12°C° 0 mm 3 m/S 776 mmHg 60%
    11:00 +13°C° 0 mm 4 m/S 776 mmHg 58%
    12:00 +14°C° 0 mm 4 m/S 776 mmHg 57%
    13:00 +14°C° 0 mm 4 m/S 776 mmHg 55%
    14:00 +14°C° 0 mm 4 m/S 776 mmHg 56%
    15:00 +14°C° 0 mm 5 m/S 776 mmHg 57%
    16:00 +14°C° 0 mm 5 m/S 776 mmHg 58%
    17:00 +13°C° 0 mm 5 m/S 776 mmHg 63%
    18:00 +10°C° 0 mm 5 m/S 775 mmHg 69%
    19:00 +10°C° 0 mm 4 m/S 775 mmHg 75%
    20:00 +9°C° 0 mm 5 m/S 775 mmHg 76%
    21:00 +9°C° 0 mm 5 m/S 775 mmHg 77%
    22:00 +9°C° 0 mm 5 m/S 775 mmHg 78%
    23:00 +9°C° 0 mm 6 m/S 774 mmHg 78%

    Morgen, 26 September, Mittwoch

    Zeit Temperatur Niederschläge Wind Luftdruck Luftfeuchtigkeit
    00:00 +9°C° 0 mm 7 m/S 774 mmHg 77%
    01:00 +9°C° 0 mm 7 m/S 774 mmHg 77%
    02:00 +10°C° 0 mm 8 m/S 773 mmHg 75%
    03:00 +10°C° 0 mm 8 m/S 772 mmHg 73%
    04:00 +10°C° 0 mm 9 m/S 772 mmHg 72%
    05:00 +11°C° 0 mm 9 m/S 771 mmHg 71%
    06:00 +11°C° 0 mm 10 m/S 771 mmHg 70%
    07:00 +11°C° 0 mm 10 m/S 770 mmHg 70%
    08:00 +12°C° 0 mm 11 m/S 770 mmHg 69%
    09:00 +13°C° 0 mm 11 m/S 770 mmHg 68%
    10:00 +14°C° 0 mm 12 m/S 769 mmHg 67%
    11:00 +14°C° 0 mm 12 m/S 769 mmHg 66%
    12:00 +15°C° 0 mm 12 m/S 769 mmHg 65%
    13:00 +15°C° 0 mm 12 m/S 769 mmHg 64%
    14:00 +15°C° 0.1 mm 12 m/S 768 mmHg 69%
    15:00 +16°C° 0.1 mm 11 m/S 768 mmHg 73%
    16:00 +14°C° 0.1 mm 11 m/S 768 mmHg 77%
    17:00 +14°C° 0 mm 11 m/S 768 mmHg 79%
    18:00 +14°C° 0 mm 10 m/S 768 mmHg 81%
    19:00 +14°C° 0 mm 10 m/S 768 mmHg 82%
    20:00 +14°C° 0 mm 10 m/S 768 mmHg 84%
    21:00 +15°C° 0 mm 9 m/S 768 mmHg 85%
    22:00 +15°C° 0 mm 9 m/S 768 mmHg 86%
    23:00 +15°C° 0 mm 9 m/S 768 mmHg 87%

    übermorgen, 27 September, Donnerstag

    Zeit Temperatur Niederschläge Wind Luftdruck Luftfeuchtigkeit
    00:00 +15°C° 0 mm 8 m/S 768 mmHg 88%
    01:00 +15°C° 0 mm 8 m/S 768 mmHg 88%
    02:00 +15°C° 0 mm 8 m/S 768 mmHg 89%
    03:00 +15°C° 0 mm 8 m/S 768 mmHg 90%
    04:00 +15°C° 0 mm 7 m/S 768 mmHg 91%
    05:00 +15°C° 0 mm 7 m/S 768 mmHg 91%
    06:00 +15°C° 0 mm 7 m/S 768 mmHg 91%
    07:00 +15°C° 0 mm 7 m/S 768 mmHg 91%
    08:00 +16°C° 0 mm 7 m/S 768 mmHg 87%
    09:00 +17°C° 0 mm 7 m/S 768 mmHg 82%
    10:00 +18°C° 0 mm 7 m/S 768 mmHg 77%
    11:00 +18°C° 0 mm 7 m/S 768 mmHg 75%
    12:00 +20°C° 0 mm 7 m/S 767 mmHg 73%
    13:00 +20°C° 0 mm 7 m/S 767 mmHg 71%
    14:00 +20°C° 0 mm 7 m/S 767 mmHg 72%
    15:00 +20°C° 0 mm 8 m/S 766 mmHg 73%
    16:00 +18°C° 0 mm 8 m/S 765 mmHg 75%
    17:00 +17°C° 0 mm 8 m/S 765 mmHg 79%
    18:00 +16°C° 0 mm 7 m/S 765 mmHg 83%
    19:00 +16°C° 0 mm 7 m/S 764 mmHg 87%
    20:00 +15°C° 0 mm 8 m/S 764 mmHg 85%
    21:00 +15°C° 0 mm 8 m/S 763 mmHg 82%
    22:00 +15°C° 0 mm 8 m/S 763 mmHg 79%
    23:00 +13°C° 0 mm 8 m/S 763 mmHg 80%

    28 September, Freitag

    Zeit Temperatur Niederschläge Wind Luftdruck Luftfeuchtigkeit
    00:00 +14°C° 0 mm 7 m/S 763 mmHg 82%
    01:00 +12°C° 0 mm 7 m/S 763 mmHg 83%
    02:00 +12°C° 0 mm 7 m/S 763 mmHg 78%
    03:00 +12°C° 0 mm 7 m/S 763 mmHg 73%
    04:00 +11°C° 0 mm 7 m/S 763 mmHg 68%
    05:00 +11°C° 0 mm 7 m/S 764 mmHg 69%
    06:00 +10°C° 0 mm 7 m/S 764 mmHg 71%
    07:00 +9°C° 0 mm 7 m/S 764 mmHg 72%
    08:00 +10°C° 0 mm 7 m/S 765 mmHg 67%
    09:00 +11°C° 0 mm 7 m/S 765 mmHg 62%
    10:00 +12°C° 0 mm 8 m/S 766 mmHg 58%
    11:00 +14°C° 0 mm 7 m/S 766 mmHg 56%
    12:00 +14°C° 0 mm 7 m/S 766 mmHg 54%
    13:00 +14°C° 0 mm 7 m/S 766 mmHg 52%
    14:00 +14°C° 0 mm 7 m/S 766 mmHg 52%
    15:00 +14°C° 0 mm 7 m/S 767 mmHg 53%
    16:00 +12°C° 0 mm 7 m/S 767 mmHg 53%
    17:00 +11°C° 0 mm 7 m/S 767 mmHg 56%
    18:00 +10°C° 0 mm 6 m/S 767 mmHg 58%
    19:00 +9°C° 0 mm 6 m/S 768 mmHg 61%
    20:00 +8°C° 0 mm 6 m/S 768 mmHg 63%
    21:00 +8°C° 0 mm 5 m/S 768 mmHg 64%
    22:00 +8°C° 0 mm 5 m/S 769 mmHg 65%
    23:00 +7°C° 0 mm 5 m/S 769 mmHg 67%

    29 September, Samstag

    Zeit Temperatur Niederschläge Wind Luftdruck Luftfeuchtigkeit
    00:00 +7°C° 0 mm 4 m/S 769 mmHg 68%
    01:00 +7°C° 0 mm 4 m/S 769 mmHg 70%
    02:00 +7°C° 0 mm 4 m/S 770 mmHg 70%
    03:00 +6°C° 0 mm 4 m/S 770 mmHg 71%
    04:00 +7°C° 0 mm 3 m/S 770 mmHg 71%
    05:00 +7°C° 0 mm 3 m/S 770 mmHg 72%
    06:00 +7°C° 0 mm 3 m/S 770 mmHg 72%
    07:00 +7°C° 0 mm 2 m/S 771 mmHg 73%
    08:00 +9°C° 0 mm 2 m/S 771 mmHg 67%
    09:00 +10°C° 0 mm 2 m/S 771 mmHg 62%
    10:00 +13°C° 0 mm 2 m/S 771 mmHg 56%
    11:00 +13°C° 0 mm 2 m/S 771 mmHg 54%
    12:00 +14°C° 0 mm 2 m/S 771 mmHg 51%
    13:00 +15°C° 0 mm 2 m/S 771 mmHg 49%
    14:00 +14°C° 0 mm 3 m/S 770 mmHg 51%
    15:00 +14°C° 0 mm 3 m/S 770 mmHg 53%
    16:00 +13°C° 0 mm 4 m/S 770 mmHg 55%
    17:00 +12°C° 0 mm 4 m/S 770 mmHg 61%
    18:00 +11°C° 0 mm 4 m/S 770 mmHg 67%
    19:00 +9°C° 0 mm 3 m/S 769 mmHg 73%
    20:00 +9°C° 0 mm 3 m/S 769 mmHg 75%
    21:00 +9°C° 0 mm 3 m/S 769 mmHg 77%
    22:00 +8°C° 0 mm 3 m/S 769 mmHg 78%
    23:00 +8°C° 0 mm 4 m/S 769 mmHg 78%

    30 September, Sonntag

    Zeit Temperatur Niederschläge Wind Luftdruck Luftfeuchtigkeit
    00:00 +8°C° 0 mm 4 m/S 769 mmHg 77%
    01:00 +8°C° 0 mm 4 m/S 768 mmHg 77%
    02:00 +8°C° 0 mm 4 m/S 768 mmHg 76%
    03:00 +8°C° 0 mm 4 m/S 768 mmHg 76%
    04:00 +9°C° 0 mm 5 m/S 767 mmHg 75%
    05:00 +9°C° 0 mm 5 m/S 767 mmHg 75%
    06:00 +9°C° 0 mm 5 m/S 767 mmHg 75%
    07:00 +9°C° 0 mm 5 m/S 767 mmHg 75%
    08:00 +10°C° 0 mm 5 m/S 767 mmHg 73%
    09:00 +11°C° 0 mm 6 m/S 767 mmHg 70%
    10:00 +13°C° 0 mm 6 m/S 767 mmHg 68%
    11:00 +13°C° 0.1 mm 6 m/S 766 mmHg 68%
    12:00 +13°C° 0.1 mm 6 m/S 766 mmHg 68%
    13:00 +12°C° 0.1 mm 7 m/S 766 mmHg 68%
    14:00 +13°C° 0.1 mm 6 m/S 766 mmHg 68%
    15:00 +13°C° 0.1 mm 6 m/S 765 mmHg 69%
    16:00 +13°C° 0.1 mm 6 m/S 765 mmHg 70%
    17:00 +11°C° 0.1 mm 6 m/S 765 mmHg 71%
    18:00 +11°C° 0.1 mm 6 m/S 765 mmHg 72%
    19:00 +10°C° 0.1 mm 6 m/S 765 mmHg 72%
    20:00 +10°C° 0 mm 6 m/S 765 mmHg 72%
    21:00 +10°C° 0 mm 6 m/S 765 mmHg 71%
    22:00 +10°C° 0 mm 6 m/S 766 mmHg 71%
    23:00 +9°C° 0 mm 6 m/S 766 mmHg 73%
    Mehr zeigen